| time (UTC) | temp F | wind direction | speed MPH | gust MPH | rain 1hr in | rain 24hr in | rain mn in | humidity % | barometer mb |
| 20260905202513 | 83 | 242 | 3.0 | 6.0 | 0.00 | 0.00 | 0.00 | 15 | 1017.8 |
| 20260905202013 | 83 | 209 | 3.0 | 7.0 | 0.00 | 0.00 | 0.00 | 16 | 1017.9 |
| 20260905201513 | 83 | 273 | 2.0 | 10.0 | 0.00 | 0.00 | 0.00 | 17 | 1017.8 |
| 20260905201013 | 82 | 261 | 1.0 | 10.0 | 0.00 | 0.00 | 0.00 | 17 | 1017.8 |
| 20260905200513 | 82 | 199 | 2.0 | 7.0 | 0.00 | 0.00 | 0.00 | 18 | 1017.7 |
| 20260905200013 | 82 | 173 | 3.0 | 11.0 | 0.00 | 0.00 | 0.00 | 21 | 1017.9 |
| 20260905195513 | 82 | 159 | 2.0 | 8.0 | 0.00 | 0.00 | 0.00 | 22 | 1017.9 |
| 20260905195013 | 82 | 222 | 0.0 | 4.0 | 0.00 | 0.00 | 0.00 | 20 | 1018.0 |
| 20260905194513 | 81 | 160 | 2.0 | 5.0 | 0.00 | 0.00 | 0.00 | 21 | 1018.1 |
| 20260905194013 | 81 | 182 | 4.0 | 16.0 | 0.00 | 0.00 | 0.00 | 23 | 1018.1 |
| 20260905193513 | 81 | 173 | 3.0 | 10.0 | 0.00 | 0.00 | 0.00 | 22 | 1018.0 |
| 20260905193013 | 81 | 209 | 4.0 | 9.0 | 0.00 | 0.00 | 0.00 | 23 | 1018.0 |
| 20260905192513 | 81 | 238 | 4.0 | 11.0 | 0.00 | 0.00 | 0.00 | 21 | 1018.1 |
| 20260905192013 | 81 | 177 | 3.0 | 9.0 | 0.00 | 0.00 | 0.00 | 22 | 1018.2 |
| 20260905191513 | 82 | 194 | 3.0 | 8.0 | 0.00 | 0.00 | 0.00 | 22 | 1018.3 |
| 20260905191013 | 81 | 205 | 3.0 | 9.0 | 0.00 | 0.00 | 0.00 | 21 | 1018.3 |
| 20260905190513 | 82 | 228 | 2.0 | 5.0 | 0.00 | 0.00 | 0.00 | 22 | 1018.5 |
| 20260905190013 | 81 | 224 | 3.0 | 6.0 | 0.00 | 0.00 | 0.00 | 19 | 1018.5 |
| 20260905185513 | 81 | 138 | 3.0 | 8.0 | 0.00 | 0.00 | 0.00 | 17 | 1018.8 |
| 20260905185013 | 81 | 164 | 3.0 | 9.0 | 0.00 | 0.00 | 0.00 | 17 | 1018.5 |
| 20260905184513 | 81 | 196 | 2.0 | 9.0 | 0.00 | 0.00 | 0.00 | 18 | 1018.9 |
| 20260905184013 | 81 | 267 | 1.0 | 7.0 | 0.00 | 0.00 | 0.00 | 18 | 1018.9 |
| 20260905183513 | 81 | 265 | 2.0 | 6.0 | 0.00 | 0.00 | 0.00 | 16 | 1019.1 |
| 20260905183013 | 81 | 265 | 2.0 | 7.0 | 0.00 | 0.00 | 0.00 | 17 | 1018.9 |
| 20260905182513 | 81 | 263 | 1.0 | 5.0 | 0.00 | 0.00 | 0.00 | 17 | 1019.0 |
| 20260905182013 | 80 | 243 | 2.0 | 7.0 | 0.00 | 0.00 | 0.00 | 17 | 1019.0 |
| 20260905181513 | 80 | 240 | 1.0 | 5.0 | 0.00 | 0.00 | 0.00 | 18 | 1019.1 |
| 20260905181013 | 80 | 244 | 2.0 | 6.0 | 0.00 | 0.00 | 0.00 | 19 | 1019.3 |
| 20260905180513 | 80 | 250 | 2.0 | 6.0 | 0.00 | 0.00 | 0.00 | 20 | 1019.3 |
| 20260905180013 | 80 | 252 | 2.0 | 8.0 | 0.00 | 0.00 | 0.00 | 19 | 1019.2 |
| 20260905175513 | 80 | 196 | 1.0 | 6.0 | 0.00 | 0.00 | 0.00 | 20 | 1019.4 |
| 20260905175013 | 80 | 203 | 1.0 | 5.0 | 0.00 | 0.00 | 0.00 | 18 | 1019.2 |
| 20260905174513 | 79 | 202 | 1.0 | 6.0 | 0.00 | 0.00 | 0.00 | 20 | 1019.4 |
| 20260905174013 | 79 | 202 | 1.0 | 5.0 | 0.00 | 0.00 | 0.00 | 20 | 1019.4 |
| 20260905173513 | 79 | 200 | 3.0 | 11.0 | 0.00 | 0.00 | 0.00 | 20 | 1019.4 |
| 20260905173013 | 79 | 230 | 2.0 | 11.0 | 0.00 | 0.00 | 0.00 | 20 | 1019.4 |
| 20260905172513 | 78 | 242 | 1.0 | 6.0 | 0.00 | 0.00 | 0.00 | 19 | 1019.4 |
| 20260905172013 | 78 | 281 | 1.0 | 7.0 | 0.00 | 0.00 | 0.00 | 20 | 1019.4 |
| 20260905171513 | 78 | 228 | 2.0 | 6.0 | 0.00 | 0.00 | 0.00 | 18 | 1019.4 |
| 20260905171013 | 78 | 227 | 2.0 | 5.0 | 0.00 | 0.00 | 0.00 | 20 | 1019.3 |
| 20260905170513 | 78 | 211 | 2.0 | 5.0 | 0.00 | 0.00 | 0.00 | 20 | 1019.4 |
| 20260905170013 | 78 | 200 | 2.0 | 8.0 | 0.00 | 0.00 | 0.00 | 20 | 1019.3 |
| 20260905165513 | 77 | 225 | 2.0 | 8.0 | 0.00 | 0.00 | 0.00 | 19 | 1019.3 |
| 20260905165013 | 77 | 271 | 1.0 | 8.0 | 0.00 | 0.00 | 0.00 | 20 | 1019.3 |
| 20260905164513 | 77 | 238 | 1.0 | 6.0 | 0.00 | 0.00 | 0.00 | 19 | 1019.4 |
| 20260905164013 | 77 | 177 | 1.0 | 8.0 | 0.00 | 0.00 | 0.00 | 21 | 1019.3 |
| 20260905163513 | 76 | 189 | 1.0 | 5.0 | 0.00 | 0.00 | 0.00 | 21 | 1019.4 |
| 20260905163013 | 76 | 213 | 1.0 | 6.0 | 0.00 | 0.00 | 0.00 | 23 | 1019.4 |
| 20260905162513 | 76 | 178 | 1.0 | 5.0 | 0.00 | 0.00 | 0.00 | 25 | 1019.4 |
| 20260905162013 | 76 | 182 | 1.0 | 5.0 | 0.00 | 0.00 | 0.00 | 26 | 1019.4 |
| 20260905161513 | 75 | 180 | 1.0 | 6.0 | 0.00 | 0.00 | 0.00 | 24 | 1019.5 |
| 20260905161013 | 75 | 188 | 1.0 | 7.0 | 0.00 | 0.00 | 0.00 | 25 | 1019.5 |
| 20260905160513 | 75 | 208 | 1.0 | 5.0 | 0.00 | 0.00 | 0.00 | 24 | 1019.4 |
| 20260905160013 | 75 | 211 | 1.0 | 6.0 | 0.00 | 0.00 | 0.00 | 24 | 1019.2 |
| 20260905155513 | 75 | 212 | 1.0 | 6.0 | 0.00 | 0.00 | 0.00 | 26 | 1019.3 |
| 20260905155013 | 74 | 213 | 1.0 | 7.0 | 0.00 | 0.00 | 0.00 | 24 | 1019.3 |
| 20260905154513 | 74 | 215 | 0.0 | 4.0 | 0.00 | 0.00 | 0.00 | 25 | 1019.3 |
| 20260905154013 | 74 | 215 | 0.0 | 4.0 | 0.00 | 0.00 | 0.00 | 25 | 1019.4 |
| 20260905153513 | 74 | 217 | 0.0 | 2.0 | 0.00 | 0.00 | 0.00 | 26 | 1019.3 |
| 20260905153013 | 73 | 217 | 0.0 | 3.0 | 0.00 | 0.00 | 0.00 | 25 | 1019.5 |
| 20260905152513 | 73 | 217 | 0.0 | 0.0 | 0.00 | 0.00 | 0.00 | 26 | 1019.6 |
| 20260905152013 | 73 | 217 | 0.0 | 3.0 | 0.00 | 0.00 | 0.00 | 27 | 1019.6 |
| 20260905151513 | 73 | 217 | 0.0 | 3.0 | 0.00 | 0.00 | 0.00 | 27 | 1019.6 |
| 20260905151013 | 73 | 217 | 1.0 | 3.0 | 0.00 | 0.00 | 0.00 | 26 | 1019.6 |
| 20260905150513 | 73 | 217 | 1.0 | 6.0 | 0.00 | 0.00 | 0.00 | 27 | 1019.5 |
| 20260905150013 | 73 | 219 | 0.0 | 4.0 | 0.00 | 0.00 | 0.00 | 26 | 1019.4 |
| 20260905145513 | 72 | 219 | 0.0 | 3.0 | 0.00 | 0.00 | 0.00 | 27 | 1019.5 |
| 20260905145013 | 72 | 219 | 0.0 | 3.0 | 0.00 | 0.00 | 0.00 | 25 | 1019.4 |
| 20260905144513 | 72 | 219 | 0.0 | 0.0 | 0.00 | 0.00 | 0.00 | 27 | 1019.4 |
| 20260905144013 | 72 | 219 | 0.0 | 0.0 | 0.00 | 0.00 | 0.00 | 27 | 1019.3 |
| 20260905143513 | 71 | 219 | 0.0 | 0.0 | 0.00 | 0.00 | 0.00 | 27 | 1019.4 |
| 20260905143013 | 71 | 219 | 0.0 | 0.0 | 0.00 | 0.00 | 0.00 | 31 | 1019.4 |
| 20260905142513 | 70 | 219 | 0.0 | 0.0 | 0.00 | 0.00 | 0.00 | 30 | 1019.3 |
| 20260905142013 | 70 | 219 | 0.0 | 0.0 | 0.00 | 0.00 | 0.00 | 31 | 1019.3 |
| 20260905141513 | 69 | 219 | 0.0 | 0.0 | 0.00 | 0.00 | 0.00 | 31 | 1019.3 |
| 20260905141013 | 68 | 219 | 0.0 | 0.0 | 0.00 | 0.00 | 0.00 | 33 | 1019.3 |
| 20260905140513 | 68 | 219 | 0.0 | 0.0 | 0.00 | 0.00 | 0.00 | 34 | 1019.2 |
| 20260905140013 | 67 | 219 | 0.0 | 0.0 | 0.00 | 0.00 | 0.00 | 32 | 1019.1 |
| 20260905135513 | 66 | 219 | 0.0 | 0.0 | 0.00 | 0.00 | 0.00 | 34 | 1019.1 |
| 20260905135013 | 66 | 219 | 0.0 | 0.0 | 0.00 | 0.00 | 0.00 | 34 | 1019.1 |
| 20260905134513 | 65 | 219 | 0.0 | 0.0 | 0.00 | 0.00 | 0.00 | 32 | 1018.9 |
| 20260905134013 | 64 | 219 | 0.0 | 0.0 | 0.00 | 0.00 | 0.00 | 32 | 1019.0 |
| 20260905133513 | 64 | 219 | 0.0 | 0.0 | 0.00 | 0.00 | 0.00 | 32 | 1018.9 |
| 20260905133013 | 64 | 219 | 0.0 | 0.0 | 0.00 | 0.00 | 0.00 | 32 | 1018.9 |
| 20260905132513 | 64 | 219 | 0.0 | 0.0 | 0.00 | 0.00 | 0.00 | 33 | 1018.8 |
| 20260905132013 | 65 | 219 | 0.0 | 0.0 | 0.00 | 0.00 | 0.00 | 29 | 1018.7 |
| 20260905131513 | 66 | 219 | 0.0 | 0.0 | 0.00 | 0.00 | 0.00 | 28 | 1018.7 |
| 20260905131013 | 66 | 219 | 1.0 | 0.0 | 0.00 | 0.00 | 0.00 | 27 | 1018.6 |
| 20260905130513 | 67 | 219 | 1.0 | 4.0 | 0.00 | 0.00 | 0.00 | 26 | 1018.6 |
| 20260905130013 | 67 | 219 | 1.0 | 3.0 | 0.00 | 0.00 | 0.00 | 26 | 1018.3 |
| 20260905125513 | 67 | 219 | 1.0 | 3.0 | 0.00 | 0.00 | 0.00 | 26 | 1018.3 |
| 20260905125013 | 67 | 219 | 1.0 | 5.0 | 0.00 | 0.00 | 0.00 | 25 | 1018.2 |
| 20260905124513 | 67 | 221 | 1.0 | 6.0 | 0.00 | 0.00 | 0.00 | 25 | 1018.2 |
| 20260905124013 | 67 | 224 | 1.0 | 7.0 | 0.00 | 0.00 | 0.00 | 26 | 1018.1 |
| 20260905123513 | 67 | 226 | 0.0 | 4.0 | 0.00 | 0.00 | 0.00 | 25 | 1018.0 |
| 20260905123013 | 67 | 226 | 0.0 | 2.0 | 0.00 | 0.00 | 0.00 | 26 | 1018.1 |
| 20260905122513 | 67 | 226 | 0.0 | 3.0 | 0.00 | 0.00 | 0.00 | 26 | 1018.0 |
| 20260905122013 | 67 | 226 | 1.0 | 4.0 | 0.00 | 0.00 | 0.00 | 26 | 1018.1 |
| 20260905121513 | 67 | 226 | 1.0 | 3.0 | 0.00 | 0.00 | 0.00 | 26 | 1018.0 |
| 20260905121013 | 67 | 227 | 0.0 | 5.0 | 0.00 | 0.00 | 0.00 | 26 | 1018.0 |
| 20260905120513 | 67 | 228 | 0.0 | 2.0 | 0.00 | 0.00 | 0.00 | 26 | 1018.1 |
| 20260905120013 | 67 | 228 | 1.0 | 3.0 | 0.00 | 0.00 | 0.00 | 26 | 1018.1 |
| 20260905115513 | 67 | 228 | 0.0 | 1.0 | 0.00 | 0.00 | 0.00 | 26 | 1018.1 |
| 20260905115013 | 67 | 228 | 0.0 | 3.0 | 0.00 | 0.00 | 0.00 | 26 | 1018.1 |
| 20260905114513 | 67 | 228 | 0.0 | 3.0 | 0.00 | 0.00 | 0.00 | 26 | 1018.1 |
| 20260905114013 | 67 | 228 | 0.0 | 6.0 | 0.00 | 0.00 | 0.00 | 28 | 1018.1 |
| 20260905113513 | 66 | 228 | 0.0 | 4.0 | 0.00 | 0.00 | 0.00 | 27 | 1017.9 |
| 20260905113013 | 66 | 228 | 0.0 | 4.0 | 0.00 | 0.00 | 0.00 | 29 | 1018.0 |
| 20260905112514 | 66 | 228 | 0.0 | 0.0 | 0.00 | 0.00 | 0.00 | 31 | 1018.1 |
| 20260905112014 | 67 | 228 | 0.0 | 0.0 | 0.00 | 0.00 | 0.00 | 33 | 1018.0 |
| 20260905111514 | 67 | 228 | 0.0 | 0.0 | 0.00 | 0.00 | 0.00 | 31 | 1018.0 |
| 20260905111014 | 67 | 228 | 0.0 | 0.0 | 0.00 | 0.00 | 0.00 | 27 | 1017.9 |
| 20260905110514 | 67 | 228 | 0.0 | 0.0 | 0.00 | 0.00 | 0.00 | 27 | 1017.9 |
| 20260905110014 | 67 | 228 | 0.0 | 2.0 | 0.00 | 0.00 | 0.00 | 27 | 1017.8 |
| 20260905105514 | 67 | 228 | 0.0 | 3.0 | 0.00 | 0.00 | 0.00 | 28 | 1017.8 |
| 20260905105014 | 67 | 228 | 0.0 | 1.0 | 0.00 | 0.00 | 0.00 | 31 | 1017.7 |
| 20260905104514 | 67 | 228 | 0.0 | 0.0 | 0.00 | 0.00 | 0.00 | 32 | 1017.8 |
| 20260905104014 | 68 | 228 | 0.0 | 0.0 | 0.00 | 0.00 | 0.00 | 30 | 1017.7 |
| 20260905103514 | 68 | 228 | 0.0 | 1.0 | 0.00 | 0.00 | 0.00 | 30 | 1017.7 |
| 20260905103014 | 68 | 228 | 0.0 | 3.0 | 0.00 | 0.00 | 0.00 | 28 | 1017.8 |
| 20260905102514 | 69 | 228 | 0.0 | 2.0 | 0.00 | 0.00 | 0.00 | 26 | 1017.8 |
| 20260905102014 | 68 | 228 | 0.0 | 0.0 | 0.00 | 0.00 | 0.00 | 27 | 1017.8 |
| 20260905101514 | 68 | 228 | 0.0 | 2.0 | 0.00 | 0.00 | 0.00 | 28 | 1017.8 |
| 20260905101014 | 68 | 228 | 0.0 | 3.0 | 0.00 | 0.00 | 0.00 | 29 | 1017.7 |
| 20260905100514 | 68 | 229 | 0.0 | 0.0 | 0.00 | 0.00 | 0.00 | 30 | 1017.6 |
| 20260905100014 | 68 | 229 | 0.0 | 4.0 | 0.00 | 0.00 | 0.00 | 31 | 1017.5 |
| 20260905095514 | 68 | 229 | 0.0 | 0.0 | 0.00 | 0.00 | 0.00 | 33 | 1017.5 |
| 20260905095014 | 68 | 229 | 0.0 | 2.0 | 0.00 | 0.00 | 0.00 | 32 | 1017.5 |
| 20260905094514 | 69 | 229 | 0.0 | 2.0 | 0.00 | 0.00 | 0.00 | 34 | 1017.4 |
| 20260905094014 | 69 | 229 | 0.0 | 6.0 | 0.00 | 0.00 | 0.00 | 32 | 1017.3 |
| 20260905093514 | 69 | 229 | 0.0 | 3.0 | 0.00 | 0.00 | 0.00 | 31 | 1017.3 |
| 20260905093014 | 70 | 229 | 0.0 | 3.0 | 0.00 | 0.00 | 0.00 | 31 | 1017.3 |
| 20260905092514 | 70 | 229 | 0.0 | 1.0 | 0.00 | 0.00 | 0.00 | 29 | 1017.3 |
| 20260905092014 | 70 | 229 | 0.0 | 1.0 | 0.00 | 0.00 | 0.00 | 29 | 1017.3 |
| 20260905091514 | 70 | 229 | 0.0 | 6.0 | 0.00 | 0.00 | 0.00 | 29 | 1017.2 |
| 20260905091014 | 70 | 233 | 0.0 | 4.0 | 0.00 | 0.00 | 0.00 | 29 | 1017.2 |
| 20260905090514 | 70 | 233 | 0.0 | 2.0 | 0.00 | 0.00 | 0.00 | 29 | 1017.2 |
| 20260905090014 | 70 | 233 | 0.0 | 5.0 | 0.00 | 0.00 | 0.00 | 30 | 1017.1 |
| 20260905085514 | 70 | 233 | 0.0 | 0.0 | 0.00 | 0.00 | 0.00 | 30 | 1017.2 |
| 20260905085014 | 70 | 233 | 0.0 | 2.0 | 0.00 | 0.00 | 0.00 | 30 | 1017.2 |
| 20260905084514 | 70 | 233 | 0.0 | 3.0 | 0.00 | 0.00 | 0.00 | 29 | 1017.2 |
| 20260905084014 | 70 | 233 | 0.0 | 2.0 | 0.00 | 0.00 | 0.00 | 29 | 1017.2 |
| 20260905083514 | 71 | 233 | 0.0 | 0.0 | 0.00 | 0.00 | 0.00 | 29 | 1017.1 |
| 20260905083014 | 71 | 233 | 0.0 | 2.0 | 0.00 | 0.00 | 0.00 | 29 | 1017.0 |
| 20260905082514 | 71 | 233 | 0.0 | 4.0 | 0.00 | 0.00 | 0.00 | 28 | 1017.1 |
| 20260905082014 | 71 | 233 | 0.0 | 2.0 | 0.00 | 0.00 | 0.00 | 28 | 1016.9 |
| 20260905081514 | 71 | 233 | 0.0 | 3.0 | 0.00 | 0.00 | 0.00 | 28 | 1016.9 |
| 20260905081014 | 71 | 233 | 0.0 | 5.0 | 0.00 | 0.00 | 0.00 | 28 | 1017.0 |
| 20260905080514 | 71 | 234 | 0.0 | 2.0 | 0.00 | 0.00 | 0.00 | 28 | 1016.9 |
| 20260905080014 | 71 | 234 | 0.0 | 3.0 | 0.00 | 0.00 | 0.00 | 29 | 1016.9 |
| 20260905075514 | 71 | 234 | 0.0 | 3.0 | 0.00 | 0.00 | 0.00 | 29 | 1016.9 |
| 20260905075014 | 71 | 234 | 0.0 | 3.0 | 0.00 | 0.00 | 0.00 | 29 | 1016.9 |
| 20260905074514 | 71 | 234 | 0.0 | 0.0 | 0.00 | 0.00 | 0.00 | 29 | 1016.9 |
| 20260905074014 | 71 | 234 | 0.0 | 2.0 | 0.00 | 0.00 | 0.00 | 29 | 1016.9 |
| 20260905073514 | 72 | 234 | 0.0 | 2.0 | 0.00 | 0.00 | 0.00 | 29 | 1016.7 |
| 20260905073014 | 72 | 234 | 0.0 | 3.0 | 0.00 | 0.00 | 0.00 | 28 | 1016.7 |
| 20260905072514 | 72 | 234 | 0.0 | 0.0 | 0.00 | 0.00 | 0.00 | 29 | 1016.6 |
| 20260905072014 | 72 | 234 | 0.0 | 0.0 | 0.00 | 0.00 | 0.00 | 29 | 1016.4 |
| 20260905071514 | 73 | 234 | 0.0 | 0.0 | 0.00 | 0.00 | 0.00 | 29 | 1016.5 |
| 20260905071014 | 73 | 234 | 0.0 | 3.0 | 0.00 | 0.00 | 0.00 | 28 | 1016.3 |
| 20260905070514 | 73 | 234 | 0.0 | 5.0 | 0.00 | 0.00 | 0.00 | 28 | 1016.3 |
| 20260905070014 | 73 | 234 | 0.0 | 5.0 | 0.00 | 0.00 | 0.00 | 27 | 1016.3 |
| 20260905065514 | 74 | 235 | 0.0 | 3.0 | 0.00 | 0.00 | 0.00 | 27 | 1016.0 |
| 20260905065014 | 74 | 233 | 1.0 | 4.0 | 0.00 | 0.00 | 0.00 | 26 | 1016.0 |
| 20260905064514 | 74 | 233 | 1.0 | 5.0 | 0.00 | 0.00 | 0.00 | 26 | 1016.0 |
| 20260905064014 | 74 | 235 | 1.0 | 5.0 | 0.00 | 0.00 | 0.00 | 26 | 1015.9 |
| 20260905063514 | 74 | 221 | 1.0 | 7.0 | 0.00 | 0.00 | 0.00 | 27 | 1015.8 |
| 20260905063014 | 74 | 221 | 1.0 | 5.0 | 0.00 | 0.00 | 0.00 | 26 | 1015.9 |
| 20260905062514 | 74 | 225 | 0.0 | 3.0 | 0.00 | 0.00 | 0.00 | 27 | 1015.9 |
| 20260905062014 | 74 | 225 | 0.0 | 3.0 | 0.00 | 0.00 | 0.00 | 27 | 1015.7 |
| 20260905061514 | 74 | 225 | 1.0 | 5.0 | 0.00 | 0.00 | 0.00 | 27 | 1015.7 |
| 20260905061014 | 74 | 226 | 1.0 | 4.0 | 0.00 | 0.00 | 0.00 | 27 | 1015.6 |
| 20260905060514 | 74 | 226 | 1.0 | 8.0 | 0.00 | 0.00 | 0.00 | 27 | 1015.5 |
| 20260905060014 | 74 | 235 | 0.0 | 4.0 | 0.00 | 0.00 | 0.00 | 28 | 1015.5 |
| 20260905055514 | 74 | 238 | 0.0 | 5.0 | 0.00 | 0.00 | 0.00 | 28 | 1015.5 |
| 20260905055014 | 74 | 236 | 0.0 | 2.0 | 0.00 | 0.00 | 0.00 | 28 | 1015.4 |
| 20260905054514 | 74 | 237 | 0.0 | 6.0 | 0.00 | 0.00 | 0.00 | 27 | 1015.4 |
| 20260905054014 | 75 | 235 | 0.0 | 2.0 | 0.00 | 0.00 | 0.00 | 28 | 1015.3 |
| 20260905053514 | 75 | 234 | 0.0 | 3.0 | 0.00 | 0.00 | 0.00 | 27 | 1015.3 |
| 20260905053014 | 75 | 236 | 0.0 | 5.0 | 0.00 | 0.00 | 0.00 | 27 | 1015.3 |
| 20260905052514 | 75 | 236 | 0.0 | 2.0 | 0.00 | 0.00 | 0.00 | 27 | 1015.3 |
| 20260905052014 | 75 | 236 | 0.0 | 3.0 | 0.00 | 0.00 | 0.00 | 27 | 1015.3 |
| 20260905051514 | 75 | 236 | 0.0 | 4.0 | 0.00 | 0.00 | 0.00 | 27 | 1015.1 |
| 20260905051014 | 74 | 236 | 0.0 | 5.0 | 0.00 | 0.00 | 0.00 | 27 | 1015.2 |
| 20260905050514 | 74 | 236 | 0.0 | 7.0 | 0.00 | 0.00 | 0.00 | 27 | 1015.2 |
| 20260905050014 | 74 | 246 | 0.0 | 2.0 | 0.00 | 0.00 | 0.00 | 26 | 1015.1 |
| 20260905045514 | 74 | 246 | 0.0 | 2.0 | 0.00 | 0.00 | 0.00 | 26 | 1015.1 |
| 20260905045014 | 74 | 246 | 0.0 | 1.0 | 0.00 | 0.00 | 0.00 | 26 | 1015.1 |
| 20260905044514 | 74 | 246 | 0.0 | 2.0 | 0.00 | 0.00 | 0.00 | 26 | 1015.2 |
| 20260905044014 | 74 | 246 | 0.0 | 2.0 | 0.00 | 0.00 | 0.00 | 26 | 1015.3 |
| 20260905043514 | 74 | 246 | 0.0 | 5.0 | 0.00 | 0.00 | 0.00 | 25 | 1015.2 |
| 20260905043014 | 74 | 246 | 0.0 | 1.0 | 0.00 | 0.00 | 0.00 | 25 | 1015.1 |
| 20260905042514 | 74 | 246 | 0.0 | 0.0 | 0.00 | 0.00 | 0.00 | 25 | 1015.1 |
| 20260905042014 | 74 | 246 | 0.0 | 0.0 | 0.00 | 0.00 | 0.00 | 25 | 1015.0 |
| 20260905041514 | 74 | 246 | 0.0 | 0.0 | 0.00 | 0.00 | 0.00 | 25 | 1015.0 |
| 20260905041014 | 74 | 246 | 0.0 | 0.0 | 0.00 | 0.00 | 0.00 | 24 | 1014.9 |
| 20260905040514 | 74 | 246 | 0.0 | 0.0 | 0.00 | 0.00 | 0.00 | 24 | 1014.8 |
| 20260905040014 | 74 | 246 | 0.0 | 0.0 | 0.00 | 0.00 | 0.00 | 25 | 1014.7 |
| 20260905035514 | 74 | 246 | 0.0 | 0.0 | 0.00 | 0.00 | 0.00 | 25 | 1014.6 |
| 20260905035014 | 74 | 246 | 0.0 | 0.0 | 0.00 | 0.00 | 0.00 | 24 | 1014.6 |
| 20260905034514 | 74 | 246 | 0.0 | 0.0 | 0.00 | 0.00 | 0.00 | 24 | 1014.5 |
| 20260905034014 | 74 | 246 | 0.0 | 0.0 | 0.00 | 0.00 | 0.00 | 24 | 1014.5 |
| 20260905033514 | 75 | 246 | 0.0 | 0.0 | 0.00 | 0.00 | 0.00 | 24 | 1014.4 |
| 20260905033014 | 75 | 246 | 0.0 | 0.0 | 0.00 | 0.00 | 0.00 | 24 | 1014.4 |
| 20260905032514 | 76 | 246 | 0.0 | 0.0 | 0.00 | 0.00 | 0.00 | 23 | 1014.5 |
| 20260905032014 | 76 | 246 | 0.0 | 3.0 | 0.00 | 0.00 | 0.00 | 23 | 1014.3 |
| 20260905031514 | 76 | 247 | 0.0 | 3.0 | 0.00 | 0.00 | 0.00 | 23 | 1014.3 |
| 20260905031014 | 76 | 247 | 0.0 | 0.0 | 0.00 | 0.00 | 0.00 | 24 | 1014.2 |
| 20260905030514 | 76 | 247 | 0.0 | 0.0 | 0.00 | 0.00 | 0.00 | 24 | 1014.3 |
| 20260905030014 | 77 | 247 | 0.0 | 0.0 | 0.00 | 0.00 | 0.00 | 24 | 1014.2 |
| 20260905025514 | 77 | 247 | 0.0 | 0.0 | 0.00 | 0.00 | 0.00 | 23 | 1014.1 |
| 20260905025014 | 78 | 247 | 0.0 | 0.0 | 0.00 | 0.00 | 0.00 | 23 | 1014.0 |
| 20260905024514 | 78 | 247 | 0.0 | 0.0 | 0.00 | 0.00 | 0.00 | 23 | 1013.9 |
| 20260905024014 | 79 | 247 | 0.0 | 0.0 | 0.00 | 0.00 | 0.00 | 23 | 1013.8 |
| 20260905023514 | 79 | 247 | 0.0 | 0.0 | 0.00 | 0.00 | 0.00 | 22 | 1013.7 |
| 20260905022514 | 79 | 275 | 1.0 | 11.0 | 0.00 | 0.00 | 0.00 | 22 | 1013.8 |
| 20260905022014 | 79 | 236 | 1.0 | 5.0 | 0.00 | 0.00 | 0.00 | 22 | 1013.7 |
| 20260905021514 | 79 | 240 | 0.0 | 6.0 | 0.00 | 0.00 | 0.00 | 22 | 1013.6 |
| 20260905021014 | 79 | 214 | 0.0 | 0.0 | 0.00 | 0.00 | 0.00 | 23 | 1013.5 |
| 20260905020515 | 80 | 213 | 0.0 | 2.0 | 0.00 | 0.00 | 0.00 | 23 | 1013.5 |
| 20260905020014 | 80 | 215 | 0.0 | 3.0 | 0.00 | 0.00 | 0.00 | 23 | 1013.5 |
| 20260905015514 | 80 | 223 | 0.0 | 5.0 | 0.00 | 0.00 | 0.00 | 22 | 1013.3 |
| 20260905015014 | 80 | 225 | 1.0 | 4.0 | 0.00 | 0.00 | 0.00 | 22 | 1013.5 |
| 20260905014514 | 80 | 218 | 1.0 | 7.0 | 0.00 | 0.00 | 0.00 | 22 | 1013.4 |
| 20260905014014 | 80 | 217 | 1.0 | 5.0 | 0.00 | 0.00 | 0.00 | 22 | 1013.5 |
| 20260905013514 | 80 | 192 | 1.0 | 7.0 | 0.00 | 0.00 | 0.00 | 22 | 1013.4 |
| 20260905013014 | 81 | 184 | 1.0 | 8.0 | 0.00 | 0.00 | 0.00 | 21 | 1013.5 |
| 20260905012515 | 81 | 234 | 1.0 | 6.0 | 0.00 | 0.00 | 0.00 | 22 | 1013.5 |
| 20260905012014 | 81 | 258 | 0.0 | 5.0 | 0.00 | 0.00 | 0.00 | 22 | 1013.5 |
| 20260905011514 | 81 | 254 | 1.0 | 4.0 | 0.00 | 0.00 | 0.00 | 22 | 1013.4 |
| 20260905011015 | 81 | 255 | 1.0 | 3.0 | 0.00 | 0.00 | 0.00 | 22 | 1013.4 |
| 20260905010514 | 81 | 255 | 1.0 | 5.0 | 0.00 | 0.00 | 0.00 | 22 | 1013.4 |
| 20260905010015 | 81 | 256 | 1.0 | 4.0 | 0.00 | 0.00 | 0.00 | 22 | 1013.3 |
| 20260905005515 | 81 | 256 | 0.0 | 6.0 | 0.00 | 0.00 | 0.00 | 22 | 1013.4 |
| 20260905005015 | 82 | 216 | 1.0 | 3.0 | 0.00 | 0.00 | 0.00 | 22 | 1013.3 |
| 20260905004515 | 82 | 216 | 2.0 | 7.0 | 0.00 | 0.00 | 0.00 | 21 | 1013.3 |
| 20260905004015 | 82 | 213 | 2.0 | 6.0 | 0.00 | 0.00 | 0.00 | 21 | 1013.4 |
| 20260905003515 | 82 | 240 | 1.0 | 10.0 | 0.00 | 0.00 | 0.00 | 21 | 1013.3 |
| 20260905003015 | 82 | 280 | 1.0 | 6.0 | 0.00 | 0.00 | 0.00 | 21 | 1013.3 |
| 20260905002515 | 82 | 220 | 1.0 | 6.0 | 0.00 | 0.00 | 0.00 | 21 | 1013.3 |
| 20260905002015 | 82 | 225 | 2.0 | 7.0 | 0.00 | 0.00 | 0.00 | 21 | 1013.3 |
| 20260905001515 | 82 | 236 | 2.0 | 7.0 | 0.00 | 0.00 | 0.00 | 20 | 1013.4 |
| 20260905001015 | 82 | 192 | 2.0 | 5.0 | 0.00 | 0.00 | 0.00 | 21 | 1013.3 |
| 20260905000515 | 83 | 218 | 2.0 | 6.0 | 0.00 | 0.00 | 0.00 | 20 | 1013.4 |
| 20260905000015 | 83 | 243 | 2.0 | 9.0 | 0.00 | 0.00 | 0.00 | 20 | 1013.3 |
| 20260904235515 | 83 | 211 | 1.0 | 7.0 | 0.00 | 0.00 | 0.00 | 19 | 1013.1 |
| 20260904235015 | 83 | 249 | 1.0 | 6.0 | 0.00 | 0.00 | 0.00 | 20 | 1013.3 |
| 20260904234515 | 84 | 252 | 2.0 | 6.0 | 0.00 | 0.00 | 0.00 | 19 | 1013.4 |
| 20260904234015 | 84 | 259 | 2.0 | 7.0 | 0.00 | 0.00 | 0.00 | 19 | 1013.3 |
| 20260904233515 | 84 | 281 | 2.0 | 9.0 | 0.00 | 0.00 | 0.00 | 19 | 1013.4 |
| 20260904233015 | 84 | 203 | 3.0 | 5.0 | 0.00 | 0.00 | 0.00 | 19 | 1013.2 |
| 20260904232515 | 84 | 211 | 3.0 | 10.0 | 0.00 | 0.00 | 0.00 | 19 | 1013.4 |
| 20260904232015 | 84 | 204 | 2.0 | 10.0 | 0.00 | 0.00 | 0.00 | 19 | 1013.4 |
| 20260904231515 | 84 | 206 | 2.0 | 8.0 | 0.00 | 0.00 | 0.00 | 18 | 1013.5 |
| 20260904231015 | 84 | 217 | 2.0 | 4.0 | 0.00 | 0.00 | 0.00 | 19 | 1013.4 |
| 20260904230515 | 84 | 217 | 3.0 | 5.0 | 0.00 | 0.00 | 0.00 | 18 | 1013.5 |
| 20260904230015 | 85 | 237 | 2.0 | 6.0 | 0.00 | 0.00 | 0.00 | 18 | 1013.6 |
| 20260904225515 | 85 | 221 | 2.0 | 4.0 | 0.00 | 0.00 | 0.00 | 18 | 1013.6 |
| 20260904225015 | 85 | 223 | 2.0 | 10.0 | 0.00 | 0.00 | 0.00 | 18 | 1013.7 |
| 20260904224515 | 85 | 281 | 3.0 | 10.0 | 0.00 | 0.00 | 0.00 | 18 | 1013.6 |
| 20260904224015 | 85 | 229 | 2.0 | 6.0 | 0.00 | 0.00 | 0.00 | 18 | 1013.5 |
| 20260904223515 | 84 | 238 | 2.0 | 5.0 | 0.00 | 0.00 | 0.00 | 18 | 1013.6 |
| 20260904223015 | 84 | 242 | 3.0 | 6.0 | 0.00 | 0.00 | 0.00 | 18 | 1013.6 |
| 20260904222515 | 84 | 191 | 2.0 | 9.0 | 0.00 | 0.00 | 0.00 | 18 | 1013.8 |
| 20260904222015 | 84 | 211 | 3.0 | 5.0 | 0.00 | 0.00 | 0.00 | 18 | 1013.7 |
| 20260904221515 | 84 | 217 | 3.0 | 8.0 | 0.00 | 0.00 | 0.00 | 17 | 1013.9 |
| 20260904221015 | 85 | 234 | 2.0 | 7.0 | 0.00 | 0.00 | 0.00 | 17 | 1014.0 |
| 20260904220515 | 85 | 250 | 2.0 | 5.0 | 0.00 | 0.00 | 0.00 | 18 | 1014.1 |
| 20260904220015 | 84 | 229 | 2.0 | 9.0 | 0.00 | 0.00 | 0.00 | 18 | 1014.0 |
| 20260904215515 | 85 | 200 | 2.0 | 7.0 | 0.00 | 0.00 | 0.00 | 17 | 1014.1 |
| 20260904215015 | 85 | 222 | 3.0 | 5.0 | 0.00 | 0.00 | 0.00 | 18 | 1014.2 |
| 20260904214515 | 84 | 221 | 3.0 | 8.0 | 0.00 | 0.00 | 0.00 | 17 | 1014.2 |
| 20260904214015 | 85 | 243 | 2.0 | 8.0 | 0.00 | 0.00 | 0.00 | 18 | 1014.2 |
| 20260904213515 | 84 | 213 | 2.0 | 6.0 | 0.00 | 0.00 | 0.00 | 18 | 1014.3 |
| 20260904213015 | 84 | 215 | 2.0 | 6.0 | 0.00 | 0.00 | 0.00 | 18 | 1014.3 |
| 20260904212515 | 84 | 204 | 2.0 | 9.0 | 0.00 | 0.00 | 0.00 | 17 | 1014.3 |
| 20260904212015 | 84 | 237 | 2.0 | 8.0 | 0.00 | 0.00 | 0.00 | 17 | 1014.4 |
| 20260904211515 | 84 | 220 | 2.0 | 8.0 | 0.00 | 0.00 | 0.00 | 17 | 1014.4 |
| 20260904211015 | 84 | 208 | 2.0 | 9.0 | 0.00 | 0.00 | 0.00 | 17 | 1014.5 |
| 20260904210515 | 84 | 264 | 2.0 | 5.0 | 0.00 | 0.00 | 0.00 | 18 | 1014.7 |
| 20260904210015 | 84 | 261 | 2.0 | 7.0 | 0.00 | 0.00 | 0.00 | 18 | 1014.7 |
| 20260904205515 | 84 | 272 | 2.0 | 13.0 | 0.00 | 0.00 | 0.00 | 18 | 1014.8 |
| 20260904205015 | 84 | 263 | 1.0 | 6.0 | 0.00 | 0.00 | 0.00 | 17 | 1014.8 |
| 20260904204515 | 84 | 270 | 1.0 | 4.0 | 0.00 | 0.00 | 0.00 | 17 | 1014.7 |
| 20260904204015 | 83 | 206 | 1.0 | 5.0 | 0.00 | 0.00 | 0.00 | 17 | 1014.8 |
| 20260904203515 | 83 | 277 | 2.0 | 8.0 | 0.00 | 0.00 | 0.00 | 18 | 1014.9 |
| 20260904203015 | 83 | 209 | 2.0 | 8.0 | 0.00 | 0.00 | 0.00 | 19 | 1014.8 |